This is the latest recevied weather packets stored in our database for station/object KB4RFE. If no packets are shown the sender has not sent any weather packets the latest 10 day(s).
| Time | Temp. | Humidity | Pressure | Rain* | Wind** | Luminosity | Snow |
|---|---|---|---|---|---|---|---|
| 1788009073 | 25° C | 98% | 1023.2 hPa | 0 mm | - | 111 W/m² | - |
| 1788008769 | 25° C | 98% | 1023.4 hPa | 0 mm | - | 120 W/m² | - |
| 1788008468 | 25° C | 98% | 1023.3 hPa | 0 mm | - | 126 W/m² | - |
| 1788008165 | 25° C | 98% | 1023.3 hPa | 0 mm | - | 143 W/m² | - |
| 1788007863 | 25° C | 99% | 1023.2 hPa | 0 mm | - | 142 W/m² | - |
| 1788007563 | 24.44° C | 98% | 1023.5 hPa | 0 mm | - | 132 W/m² | - |
| 1788007258 | 24.44° C | 98% | 1023.4 hPa | 0 mm | - | 116 W/m² | - |
| 1788006957 | 24.44° C | 99% | 1023.2 hPa | 0 mm | - | 103 W/m² | - |
| 1788006656 | 24.44° C | 99% | 1023.2 hPa | 0.51 mm | - | 89 W/m² | - |
| 1788006352 | 24.44° C | 99% | 1023.3 hPa | 0.51 mm | - | 81 W/m² | - |
| 1788006051 | 24.44° C | 99% | 1023.4 hPa | 0 mm | - | 78 W/m² | - |
| 1788005750 | 24.44° C | 99% | 1023.3 hPa | 0 mm | - | 74 W/m² | - |
| 1788005445 | 24.44° C | 99% | 1023.1 hPa | 0 mm | - | 64 W/m² | - |
| 1788005144 | 24.44° C | 99% | 1023.3 hPa | 0 mm | - | 58 W/m² | - |
| 1788004839 | 24.44° C | 99% | 1022.9 hPa | 0 mm | - | 50 W/m² | - |
| 1788004538 | 23.89° C | 99% | 1023.2 hPa | 0 mm | - | 40 W/m² | - |
| 1788004233 | 23.89° C | 99% | 1023.1 hPa | 0 mm | - | 38 W/m² | - |
| 1788003932 | 23.89° C | 99% | 1023.1 hPa | 0 mm | - | 34 W/m² | - |
| 1788003626 | 23.89° C | 98% | 1023.2 hPa | 0.51 mm | - | 26 W/m² | - |
| 1788003326 | 23.89° C | 98% | 1023.4 hPa | 1.78 mm | - | 19 W/m² | - |
| 1788003021 | 23.89° C | 98% | 1023.1 hPa | 4.32 mm | - | 13 W/m² | - |
| 1788002721 | 23.89° C | 98% | 1023.1 hPa | 3.05 mm | - | 10 W/m² | - |
| 1788002417 | 23.89° C | 98% | 1023 hPa | 0.51 mm | - | 6 W/m² | - |
| 1788002112 | 23.89° C | 98% | 1022.9 hPa | 0.51 mm | - | 3 W/m² | - |
| 1788001812 | 23.89° C | 98% | 1022.9 hPa | 0.51 mm | - | 4 W/m² | - |
* Rain latest hour (hover to see other rain measurements)
** Current wind speed in m/s (hover to see current wind gust speed)